Home > Weather > Lakewood > Past weeks

Flag for USA Past Weather in Lakewood, New Jersey, USA — Yesterday and Last 2 Weeks

Now
71 °F

Passing clouds.


Feels Like: 67 °F
Forecast: 66 / 83 °F
Wind: No wind

Location: Lakehurst Naval Air Station

Current Time: Jun 28, 2016 at 11:50:14 PM

Latest Report: Jun 28, 2016 at 11:00 PM


Visibility: 9 mi

Pressure: 29.88 "Hg

Humidity: 93%

Dew Point: 69 °F

Location of LakewoodLocation

Past Weather in Lakewood — Graph

°F

Lakewood Temperature Yesterday

Maximum temperature yesterday: 85 °F (at 2:00 PM)
Minimum temperature yesterday: 52 °F (at 5:00 AM)
Average temperature yesterday: 71 °F

High & Low Weather Summary for the Past Weeks

 TemperatureHumidityPressure
High89 °F (Jun 19, 1:00 PM)100% (Jun 22, 4:00 AM)30.30 "Hg (Jun 22, 4:00 AM)
Low45 °F (Jun 18, 4:00 AM)25% (Jun 14, 4:00 PM)29.72 "Hg (Jun 16, 6:00 PM)
Average71 °F66%29.99 "Hg
* Reported Jun 13 10:00 PM — Jun 28 10:00 PM, Lakewood, Weather by CustomWeather, © 2016

Note: Actual official high and low records may vary slightly from our data, if they occured in-between our weather recording intervals... More about our weather records

Advertising

Lakewood Weather History for the Previous 24 Hours

Scroll right to see more
 ConditionsComfort  
Time TempWeatherWind HumidityBarometerVisibility
10:00 PM
Tue, Jun 28
72 °FPassing clouds.3 mph93%29.87 "Hg9 mi
9:00 PM73 °FSunny.7 mph90%29.86 "Hg10 mi
8:00 PM74 °FSunny.6 mph88%29.85 "Hg10 mi
7:00 PM76 °FScattered clouds.10 mph82%29.86 "Hg10 mi
6:00 PM77 °FPartly sunny.7 mph82%29.87 "Hg10 mi
5:00 PM77 °FBroken clouds.10 mph79%29.87 "Hg10 mi
4:06 PM79 °FPartly sunny.12 mph74%29.86 "Hg10 mi
3:00 PM80 °FPassing clouds.8 mph69%29.88 "Hg10 mi
2:00 PM79 °FBroken clouds.7 mph74%29.91 "Hg10 mi
1:06 PM77 °FMostly cloudy.9 mph79%29.93 "Hg10 mi
12:00 PM74 °FMostly cloudy.8 mph88%29.94 "Hg10 mi
11:06 AM75 °FMostly cloudy.10 mph85%29.94 "Hg10 mi
11:00 AM75 °FPartly sunny.9 mph83%29.95 "Hg10 mi
10:00 AM72 °FLow clouds.6 mph93%29.96 "Hg8 mi
9:00 AM71 °FFog.9 mph93%29.96 "Hg6 mi
8:00 AM70 °FLow clouds.6 mph97%29.96 "Hg8 mi
7:00 AM70 °FPartly sunny.5 mph97%29.95 "Hg7 mi
6:38 AM70 °FMostly cloudy.8 mph97%29.95 "Hg7 mi
6:00 AM70 °FFog.5 mph100%29.97 "Hg6 mi
5:00 AM69 °FLight rain. Overcast.6 mph96%29.95 "Hg7 mi
4:00 AM69 °FHeavy rain. Fog.6 mph93%29.95 "Hg2 mi
3:00 AM70 °FRain. Fog.No wind94%29.97 "Hg3 mi
2:00 AM70 °FLight rain. Fog.5 mph93%29.97 "Hg3 mi
1:00 AM71 °FOvercast.6 mph90%29.98 "Hg10 mi
12:00 AM70 °FPassing clouds.6 mph93%29.99 "Hg10 mi
11:00 PM
Mon, Jun 27
71 °FLight rain. Passing clouds.5 mph90%30.00 "Hg8 mi
Weather by CustomWeather, © 2016

See weather overviewHow to use our weather pages